GFSFLT1_850_temp_108.txt.gz
Temp
23 22 21 20 20 18 16 15 14 12 11 12 12 12 11 11 11 11 11 12 11 12 12 13 13 12 12 12 12 12 12 12
21 21 20 19 18 17 16 15 14 12 12 11 11 11 11 11 11 11 12 11 11 13 12 13 12 12 12 12 12 11 11 11
21 20 19 19 19 17 16 15 14 13 12 11 11 11 11 11 11 11 11 12 12 12 12 13 13 12 12 12 12 11 11 11
19 18 18 19 18 17 16 15 15 13 12 11 11 11 11 11 11 11 11 11 12 12 12 12 13 12 12 12 11 11 11 11
20 18 18 19 18 16 15 15 15 13 12 11 11 11 11 11 11 11 11 12 12 12 12 12 12 12 12 12 11 11 11 11
19 20 19 19 18 16 15 15 15 13 12 10 10 10 10 10 11 11 10 10 11 11 11 11 11 11 12 12 11 11 11 11
19 17 18 18 16 15 14 14 14 12 11 10 10 10 9 10 10 10 11 11 11 11 11 11 11 11 12 11 11 11 10 11
17 16 18 17 16 15 14 13 12 10 10 10 10 10 10 10 10 10 10 10 10 10 10 10 10 11 11 11 10 9 8 9
18 17 18 17 16 14 14 13 12 10 10 10 10 10 10 10 11 10 10 10 10 10 10 10 10 10 10 10 9 9 9 9
15 15 17 17 15 16 15 14 12 10 10 10 10 11 11 11 10 10 10 10 10 10 10 9 10 10 11 10 9 9 9 9
13 17 18 17 16 16 14 14 14 13 10 9 10 10 10 11 10 10 10 10 10 10 10 10 10 9 8 8 8 8 8 9
15 14 17 17 16 16 16 14 13 13 9 10 10 10 10 10 11 10 10 10 10 9 9 9 9 9 9 10 9 8 8 9
17 15 12 17 17 16 16 15 13 14 14 10 10 10 10 10 10 10 10 10 10 10 10 9 10 10 10 9 8 8 9 9
17 16 14 12 17 16 16 16 15 15 15 12 10 9 10 9 9 10 10 10 10 10 10 10 10 10 10 9 9 8 9 9
16 15 14 13 11 16 16 16 15 15 14 12 12 10 10 10 10 10 10 9 9 9 9 9 9 9 9 9 9 9 9 8
16 15 15 13 13 12 14 16 16 14 13 13 11 10 10 10 10 10 10 10 10 10 10 9 9 9 9 9 9 9 8 8
12 14 15 16 14 14 12 11 15 15 13 13 11 11 9 10 9 9 9 9 9 9 9 9 8 8 8 9 8 8 8 8
10 11 11 13 16 17 14 12 11 13 14 13 12 11 10 10 9 9 9 8 8 8 8 8 9 9 9 9 8 8 8 8
9 11 12 12 15 14 14 13 12 11 12 13 12 11 10 9 9 9 9 9 9 9 9 9 9 9 9 9 9 8 8 7

GFSFLT1_850_temp_111.txt.gz
Temp
21 20 20 21 21 19 17 16 15 14 13 12 12 12 12 12 10 10 10 11 11 11 12 12 12 12 12 12 12 11 12 12
20 20 22 18 19 18 17 16 15 14 13 12 12 12 12 11 11 11 10 10 10 11 12 12 12 13 13 12 12 12 11 11
19 20 19 21 18 17 16 16 15 14 13 12 12 12 12 11 11 11 11 11 11 11 12 12 12 12 12 12 12 11 11 11
20 19 18 18 18 17 17 17 16 14 12 12 11 11 11 11 11 11 11 11 11 11 12 12 11 12 12 12 12 12 11 11
20 19 18 19 17 18 17 17 16 14 12 11 12 12 11 11 11 11 11 11 11 11 11 12 12 12 12 12 12 12 12 11
20 20 20 19 16 17 17 17 16 14 12 11 11 11 11 11 11 11 11 10 11 11 11 11 11 12 12 12 11 11 11 12
19 19 17 17 15 15 16 16 16 13 11 11 11 12 11 11 11 11 11 11 11 11 11 11 11 12 12 12 11 11 11 11
18 19 18 17 16 15 15 16 15 12 11 10 11 11 10 11 10 10 11 11 11 11 10 11 11 11 11 11 11 11 11 11
15 16 19 17 16 15 15 16 15 11 10 10 9 10 10 10 9 10 10 10 10 11 11 10 10 11 11 10 10 11 10 10
13 14 13 15 16 16 15 16 15 11 10 10 10 10 10 10 10 10 11 10 10 10 11 11 10 10 10 10 9 10 10 8
11 13 12 12 14 16 15 15 15 12 10 10 9 10 9 10 10 10 10 10 10 10 10 10 10 10 10 10 10 10 9 9
10 12 12 11 12 12 15 14 14 12 11 10 10 9 10 9 10 10 10 10 10 9 10 10 10 10 10 10 10 9 9 8
11 12 13 12 11 10 12 13 13 12 12 11 10 10 10 9 10 10 10 9 10 10 10 9 10 10 10 10 10 9 8 9
11 13 12 13 13 10 10 10 11 12 12 11 9 9 10 10 10 9 10 10 9 9 9 9 9 9 9 10 9 10 10 9
10 13 13 13 13 13 12 10 10 10 12 12 10 9 10 10 9 9 9 9 9 9 9 9 8 8 9 9 9 9 8 8
9 10 11 11 12 12 11 12 10 9 10 11 10 10 10 10 9 9 9 9 9 9 9 9 9 9 9 9 9 9 8 8
8 10 10 11 10 10 11 12 12 10 10 10 9 10 10 10 10 9 9 9 9 9 8 9 9 9 9 9 8 8 8 8
8 10 10 12 12 11 11 12 11 13 11 10 9 9 9 10 10 9 9 9 9 8 8 8 8 8 8 8 8 8 8 8
9 8 10 11 11 12 12 12 11 11 11 11 10 9 9 9 9 9 8 8 9 8 8 8 8 9 9 9 8 8 8 8

GFSFLT1_850_temp_114.txt.gz
Temp
20 19 20 21 21 20 20 18 18 17 15 14 13 12 11 11 11 11 11 10 11 10 10 11 12 12 12 12 11 10 11 10
19 19 19 20 21 19 19 18 18 16 15 14 13 11 11 11 11 12 11 10 10 11 11 11 12 11 12 12 11 11 10 10
19 19 19 21 20 19 19 18 18 16 16 14 13 12 12 11 11 11 10 10 10 10 11 11 11 12 12 12 11 10 10 10
19 19 19 20 20 18 17 17 18 16 15 13 13 12 11 11 11 10 10 10 11 11 10 10 11 12 12 12 11 11 10 10
17 18 18 20 19 17 15 16 17 15 14 12 13 12 11 11 11 11 11 10 11 10 11 11 12 12 12 13 12 11 11 11
15 15 17 17 18 17 16 16 16 14 13 12 13 12 11 12 11 11 12 11 10 10 11 11 11 11 12 12 12 12 11 11
12 14 15 18 17 17 15 15 15 14 12 12 13 12 11 11 11 11 11 11 11 10 10 11 11 11 12 12 12 12 11 11
12 12 13 13 14 16 14 15 14 14 12 11 12 11 10 11 11 11 11 11 11 10 11 11 11 11 11 11 12 12 12 11
13 11 13 12 13 14 13 14 14 13 12 11 12 11 10 10 10 11 11 11 11 11 10 10 11 11 11 11 11 11 11 11
13 13 11 11 11 12 12 13 13 13 12 10 10 10 9 9 9 10 10 10 10 10 11 11 11 10 11 11 10 11 11 10
12 13 11 10 11 10 10 11 11 13 12 10 10 9 9 9 9 10 9 10 10 10 10 10 10 11 10 10 10 10 10 9
10 12 12 10 11 10 10 10 11 11 10 9 9 9 9 9 9 9 9 10 10 10 10 10 10 10 10 10 10 10 9 9
10 11 10 10 10 10 10 10 11 11 10 9 9 9 9 10 9 10 10 9 10 10 10 10 10 10 10 10 10 10 9 9
10 9 8 10 10 10 10 10 11 11 11 9 8 9 9 9 9 10 9 9 9 10 10 9 10 10 10 10 10 10 9 9
9 7 7 9 10 10 10 11 12 11 11 9 8 8 9 9 9 9 9 9 9 9 9 9 9 10 9 9 10 9 9 9
7 7 8 7 9 9 10 10 11 12 10 9 9 8 8 8 8 8 9 9 9 9 8 8 8 9 9 9 9 9 9 9
8 8 8 7 7 9 9 10 10 10 11 10 9 8 8 8 8 8 8 8 9 9 9 9 8 8 8 9 9 9 8 8
6 7 7 7 7 8 9 10 10 10 10 10 9 9 9 9 8 8 9 8 8 8 8 8 8 8 8 8 8 8 8 8
6 6 7 7 8 8 8 9 10 10 10 9 9 9 9 9 8 9 8 8 7 7 7 7 7 8 8 8 8 8 7 7

GFSFLT1_850_temp_117.txt.gz
Temp
19 18 19 19 19 19 20 20 19 18 16 16 15 14 14 13 12 12 12 11 11 10 11 11 11 11 11 12 11 10 11 11
18 18 18 18 19 19 20 20 18 17 16 16 15 15 14 13 12 12 11 11 10 11 11 11 11 10 11 11 11 11 10 10
17 17 18 18 18 18 17 18 17 16 16 16 16 16 14 12 12 11 11 11 10 10 11 11 11 10 10 11 11 10 10 10
16 17 17 18 19 17 16 16 15 15 15 15 15 14 13 12 11 11 11 11 10 10 10 11 11 10 10 11 11 10 10 10
14 15 16 16 18 17 16 15 14 15 15 15 15 16 12 11 11 11 11 10 11 10 10 10 11 10 11 11 12 11 12 11
13 14 14 16 17 16 15 14 14 14 15 15 15 15 12 11 11 11 10 10 10 10 10 11 10 10 11 11 11 10 11 11
13 13 14 15 15 14 14 13 13 13 14 15 15 15 12 12 11 11 10 10 10 10 10 10 10 10 11 11 12 12 11 11
11 11 12 13 14 12 12 13 12 13 13 13 14 14 12 12 12 11 11 10 10 10 10 10 10 10 11 11 11 12 12 11
11 10 11 11 11 12 11 11 11 12 13 12 12 12 11 11 11 11 10 11 11 11 11 11 10 10 11 11 11 11 11 11
10 10 9 11 12 11 10 9 11 11 12 12 12 11 10 10 11 10 10 11 10 11 11 11 11 11 11 11 10 11 11 11
9 9 9 10 12 12 10 10 9 11 11 12 11 10 10 10 10 10 10 10 10 11 10 11 11 10 11 11 10 10 11 11
9 9 10 9 10 10 11 10 9 10 11 12 11 9 9 9 9 9 9 10 10 10 10 10 10 11 10 10 10 10 10 11
9 9 12 10 9 9 10 10 9 10 10 11 10 9 9 9 9 9 9 9 9 10 10 10 10 10 10 11 10 10 10 9
8 10 10 10 8 8 9 9 9 9 10 10 9 9 10 9 9 9 9 9 10 10 10 10 10 10 10 10 10 10 10 9
8 8 9 9 8 7 8 9 9 9 9 9 9 9 10 9 9 9 9 9 9 10 10 9 9 9 10 10 9 10 9 9
9 8 9 8 7 7 8 9 9 9 10 9 9 10 10 9 9 9 9 9 9 9 9 9 9 9 9 9 9 9 9 9
7 7 9 8 7 7 7 8 9 9 10 9 9 9 9 9 9 9 9 9 8 9 9 8 8 8 9 9 8 9 9 9
5 7 8 8 7 6 7 8 8 9 9 9 8 9 8 9 9 8 8 8 8 8 8 8 8 8 8 8 8 9 8 8
5 6 6 6 6 8 7 8 8 8 9 9 9 8 9 8 8 8 8 8 8 8 8 8 8 8 8 8 8 8 8 8

GFSFLT1_850_temp_120.txt.gz
Temp
20 19 18 17 17 18 19 19 19 16 14 13 13 15 16 15 15 14 13 12 11 11 11 11 11 10 10 10 11 10 11 12
19 18 17 16 16 17 18 18 18 15 14 13 13 15 15 15 14 14 14 13 11 11 11 11 11 11 10 10 11 11 11 11
18 17 16 15 15 17 17 15 15 13 13 12 12 14 15 15 15 14 14 12 12 11 11 10 11 11 10 10 10 11 11 10
17 16 15 15 15 14 14 14 13 13 12 12 12 14 14 14 14 14 13 11 11 11 11 10 11 11 10 10 10 10 11 10
16 15 15 15 14 13 13 13 15 14 11 12 12 14 15 16 16 15 11 11 11 11 10 10 10 10 10 10 10 10 11 10
15 15 15 15 13 14 12 12 16 12 12 12 12 12 12 13 15 14 11 11 11 10 10 10 10 10 10 10 9 9 10 10
15 15 14 14 13 12 14 13 12 12 12 13 12 12 12 11 12 11 11 11 11 11 10 10 10 10 10 10 10 9 10 10
14 14 14 13 13 12 11 12 11 12 12 12 12 12 11 11 11 11 11 11 11 11 10 10 10 10 10 10 9 9 10 10
14 13 13 12 12 12 12 11 10 11 11 12 12 13 13 12 11 11 11 11 11 11 10 10 10 10 10 10 10 10 10 10
13 13 13 12 11 10 11 11 10 10 11 11 12 12 11 11 11 11 11 12 11 10 10 10 10 9 10 10 10 10 10 10
13 13 12 12 11 10 11 10 10 10 11 11 11 12 11 10 11 11 11 11 10 11 10 10 10 10 9 9 10 10 10 11
13 12 12 12 11 10 11 10 10 10 10 10 11 11 10 10 11 10 11 11 11 11 10 10 10 10 10 10 10 10 10 10
12 12 12 11 10 9 10 10 9 9 9 10 10 11 10 9 10 10 10 10 10 10 10 10 10 10 10 10 10 9 10 8
13 12 11 10 9 8 9 9 9 9 9 9 10 10 10 9 9 9 10 10 10 10 10 10 10 9 9 10 10 10 10 10
12 12 11 10 9 10 9 9 8 9 9 9 10 10 9 10 9 10 9 9 9 9 9 10 9 10 9 10 10 10 10 10
12 11 10 9 7 9 9 9 7 8 9 9 9 9 9 9 9 9 9 9 9 9 9 10 10 10 9 9 9 9 9 8
10 9 8 7 5 7 9 8 7 7 9 9 9 9 9 9 9 9 9 9 9 9 9 9 9 9 9 9 9 9 8 8
8 7 6 5 4 6 7 9 7 7 8 9 9 9 9 9 9 9 9 9 9 9 9 9 9 9 9 9 9 9 8 8
6 5 4 3 3 3 6 8 7 7 8 9 9 9 9 8 9 9 9 9 8 9 9 8 8 8 8 8 8 8 8 8

GFSFLT1_850_temp_123.txt.gz
Temp
21 21 21 19 19 19 18 18 18 18 17 15 15 14 15 14 14 14 13 14 14 13 13 12 12 12 11 11 11 11 12 12
21 20 19 18 18 18 18 18 17 17 17 16 15 14 14 13 14 13 13 13 13 13 12 12 12 11 12 11 10 11 12 12
21 20 18 18 17 17 17 17 17 16 16 16 15 13 13 13 13 13 13 13 12 12 12 12 11 11 11 10 10 10 11 12
20 18 18 17 17 15 16 17 17 16 16 15 13 13 13 13 13 13 15 14 13 11 12 11 11 11 11 11 10 10 10 11
18 18 18 17 16 14 15 16 16 15 14 14 13 12 12 12 13 13 14 14 12 11 12 11 11 11 11 11 11 10 10 10
18 18 17 17 15 14 13 14 15 14 12 14 12 12 12 13 12 12 14 13 11 11 12 11 11 11 10 10 10 10 10 10
17 17 17 17 15 14 14 12 12 12 12 12 12 12 13 13 13 12 11 12 12 12 11 11 10 10 10 10 10 10 9 10
17 17 16 16 15 14 14 15 12 12 12 12 12 12 13 14 12 11 12 12 12 12 12 11 11 10 10 10 10 10 9 10
16 16 15 15 14 13 12 14 14 11 11 12 12 12 13 13 13 12 12 12 12 12 12 12 12 11 10 10 10 10 9 10
16 16 15 15 15 14 11 12 14 11 11 11 12 12 12 13 12 11 12 12 12 12 12 11 11 10 10 9 9 9 9 9
16 15 15 14 14 13 11 10 11 11 10 10 11 12 12 12 12 12 11 11 11 11 11 11 10 10 10 9 9 9 9 9
16 15 14 14 13 12 11 10 9 10 10 10 10 11 11 12 12 12 11 12 11 11 10 11 10 10 9 9 9 9 9 9
15 15 14 14 12 11 11 9 9 9 10 10 10 11 11 11 11 11 11 11 11 11 11 10 10 10 10 10 9 9 9 9
15 15 15 14 13 11 10 9 8 8 9 10 10 10 11 11 11 10 11 11 11 11 10 10 10 10 10 10 10 9 9 9
15 15 14 14 12 10 8 7 7 9 9 9 10 10 11 11 10 10 10 10 10 10 10 10 10 10 10 10 10 9 9 9
14 14 14 12 10 9 8 6 6 7 8 9 9 10 10 10 10 10 10 10 10 10 10 10 10 10 10 10 10 10 9 9
14 12 11 10 8 8 7 5 8 7 8 8 9 9 10 10 10 10 10 9 10 9 9 9 9 10 10 9 9 9 9 9
11 10 8 7 7 5 5 4 6 7 7 8 9 9 10 10 10 9 9 9 9 10 9 9 9 9 10 9 10 9 9 8
9 8 7 6 5 3 5 4 4 6 7 8 8 9 10 10 10 9 9 9 9 9 9 9 9 9 9 9 9 9 8 8

GFSFLT1_850_temp_126.txt.gz
Temp
22 22 22 22 21 21 20 20 20 19 18 17 17 16 17 17 15 15 15 15 15 14 14 13 13 12 12 12 11 12 11 11
23 22 21 20 19 19 19 19 19 19 18 17 16 16 17 16 16 14 14 14 14 14 14 13 13 12 12 12 12 12 10 11
23 22 20 19 18 18 18 18 17 17 17 17 16 16 15 15 15 13 14 14 14 13 14 13 12 12 12 12 11 11 10 11
22 20 19 18 17 17 16 16 16 17 17 16 16 16 15 14 13 13 13 13 13 13 13 12 12 11 11 11 12 11 12 11
20 19 19 18 17 15 15 15 16 17 17 16 16 16 15 14 13 13 12 14 13 13 13 12 12 12 11 11 11 12 10 11
19 19 18 18 16 15 14 15 14 15 15 15 15 15 15 14 13 12 12 12 13 13 13 12 11 11 11 11 11 11 11 11
18 17 17 17 16 14 14 14 15 14 14 14 13 13 13 13 12 12 12 12 12 13 12 11 12 11 11 11 11 11 11 10
17 17 17 16 15 14 14 14 15 14 14 12 12 12 13 13 13 13 12 12 12 12 11 11 11 11 11 11 10 10 11 10
17 17 16 16 15 15 13 13 14 14 13 11 11 12 12 13 13 13 12 12 12 12 11 11 12 11 11 10 10 10 10 10
17 16 16 15 15 14 13 12 12 12 12 10 11 12 12 12 13 13 13 13 12 12 12 11 11 11 11 11 10 10 10 10
16 16 16 15 15 13 12 11 10 11 11 10 10 11 12 12 12 12 13 12 12 12 12 12 12 11 11 10 10 10 10 10
16 16 15 15 14 13 12 11 10 9 10 10 10 11 12 12 12 12 13 12 12 11 11 12 11 11 11 10 9 9 9 10
15 15 15 15 14 13 11 10 9 9 8 10 10 10 11 11 12 12 11 12 12 11 11 11 11 11 11 10 9 9 9 9
15 15 15 15 15 12 10 10 9 8 9 9 10 10 10 11 11 12 12 11 12 11 11 11 11 10 11 10 10 9 9 9
15 15 15 13 12 10 10 9 8 8 9 9 9 9 10 11 11 11 11 11 12 11 11 11 11 10 11 10 10 10 9 9
14 14 13 11 10 9 8 8 7 6 8 8 8 9 9 10 10 11 11 10 11 10 10 10 10 10 10 10 10 10 9 9
14 12 10 9 8 8 7 6 6 5 6 8 8 9 9 10 10 11 10 10 11 10 10 10 9 10 10 10 10 9 9 9
11 9 8 7 7 6 5 5 4 4 5 8 8 8 9 9 10 10 10 9 10 9 9 9 9 9 10 10 9 9 9 9
7 6 6 6 4 4 4 3 2 3 3 6 7 7 8 9 9 10 10 9 9 10 9 9 9 10 9 9 9 9 9 9

GFSFLT1_850_temp_132.txt.gz
Temp
21 22 22 22 23 22 22 22 21 21 20 19 18 18 18 17 17 17 15 14 14 14 15 15 14 13 13 13 12 12 12 12
20 21 21 22 22 22 22 21 19 19 18 18 17 18 18 17 17 16 16 15 15 14 14 15 14 14 14 15 12 12 12 11
20 21 20 21 21 20 19 18 18 18 17 17 17 17 17 17 17 16 16 16 15 15 14 15 14 14 14 13 12 12 12 12
20 19 18 19 19 19 19 19 18 17 17 17 16 16 17 16 16 16 15 16 15 15 14 14 14 13 14 13 12 12 13 12
19 19 17 18 17 17 17 17 17 16 16 16 16 16 16 16 16 16 16 15 14 14 14 14 14 13 13 13 13 13 13 13
19 18 19 18 17 17 17 17 18 17 16 15 15 15 15 15 16 16 15 14 14 14 14 13 14 14 14 14 13 12 12 13
19 18 16 16 16 16 17 17 19 18 15 14 14 14 14 15 15 15 14 14 14 14 14 13 14 14 14 13 12 12 12 12
18 16 16 15 15 16 16 17 16 14 14 14 13 13 12 12 13 13 14 14 14 14 13 13 13 13 13 12 12 12 11 12
17 16 15 15 15 15 15 15 14 13 13 13 12 11 11 11 11 12 13 13 13 13 13 12 13 13 12 11 11 11 11 11
15 15 15 15 15 14 14 14 14 13 13 13 12 12 11 11 11 11 12 12 13 13 12 12 12 12 12 11 11 10 11 11
14 14 14 15 14 13 13 13 13 12 12 12 12 12 11 11 11 11 11 12 12 12 12 12 11 12 11 11 11 11 11 11
9 12 14 14 13 12 11 12 12 12 12 12 12 12 12 11 11 11 10 11 12 12 12 12 11 11 11 11 11 11 11 10
8 10 11 11 10 10 10 10 10 10 11 11 12 12 12 11 11 11 10 10 11 11 12 12 12 11 11 11 10 10 10 10
9 9 8 7 8 8 8 8 8 9 10 11 11 11 11 11 11 11 11 10 10 11 12 12 12 12 11 11 11 10 10 10
7 7 6 6 6 6 7 7 7 8 9 10 10 10 11 11 10 10 11 11 10 10 11 11 11 12 11 11 11 11 11 10
4 4 4 5 5 5 5 6 6 8 9 9 10 10 10 10 9 9 10 10 10 10 11 11 11 12 12 11 11 11 11 10
3 2 3 4 4 4 4 5 7 7 7 8 8 9 9 9 9 9 9 10 9 10 10 11 12 11 12 11 11 11 11 10
1 1 1 2 2 2 3 4 5 6 6 6 7 7 8 8 8 9 8 9 9 10 10 10 11 11 11 11 11 10 10 9
-0 -0 -1 -1 -0 1 2 4 4 4 4 4 5 5 6 7 7 8 8 8 9 9 10 10 11 11 11 11 10 10 10 9

GFSFLT1_850_temp_135.txt.gz
Temp
20 20 20 20 21 21 22 22 22 22 21 20 19 18 18 17 17 17 16 16 16 15 15 14 15 14 14 13 13 12 12 12
20 19 20 20 21 22 21 22 22 22 21 20 19 19 18 18 18 17 16 15 15 14 15 14 15 15 15 15 13 12 12 12
19 19 19 20 20 19 22 21 22 21 21 20 19 19 18 18 17 17 17 16 16 15 15 15 15 14 14 14 14 12 12 12
19 19 19 20 18 18 20 21 21 19 19 19 18 18 17 17 17 17 16 16 15 15 15 14 15 14 15 15 14 14 13 12
18 18 18 18 16 16 17 17 17 17 17 16 16 17 17 17 17 17 16 16 15 14 14 14 14 14 14 15 14 14 14 13
17 17 18 17 16 16 16 16 16 16 17 17 17 16 16 16 16 16 15 15 14 14 14 14 13 13 14 14 14 13 13 13
17 17 17 15 16 16 16 16 16 16 15 16 17 15 15 14 14 15 14 14 14 14 14 14 14 13 13 13 13 13 13 14
15 16 15 14 14 15 15 15 13 14 14 14 14 14 14 14 14 14 13 13 13 14 13 13 14 13 13 13 13 13 13 13
14 15 15 14 14 14 14 15 15 14 14 15 15 14 13 13 12 12 12 12 13 13 13 13 13 14 13 13 13 13 13 12
12 13 13 13 13 13 13 13 14 14 14 13 13 13 12 12 11 11 11 11 12 12 13 13 13 13 13 13 13 13 13 12
8 9 10 11 12 11 11 12 12 12 12 12 12 12 12 12 12 11 11 11 11 12 12 12 12 12 12 12 12 13 11 11
6 7 8 8 8 9 10 11 11 10 9 10 11 12 11 11 11 11 11 11 11 12 12 12 12 12 12 12 12 12 11 11
5 5 6 5 6 7 8 9 9 9 9 9 10 11 11 11 11 11 11 11 11 11 11 11 12 12 12 12 11 11 11 11
3 2 3 3 4 5 6 7 8 8 8 9 10 10 10 10 11 11 11 11 11 11 10 11 11 11 12 12 11 11 11 11
2 1 1 1 2 4 5 7 7 7 7 7 8 9 10 10 10 10 10 10 10 11 11 11 11 11 11 11 12 11 11 11
0 1 0 1 3 3 4 4 4 5 5 5 7 8 9 9 9 10 10 10 10 9 9 10 10 10 11 11 11 11 11 10
-0 -0 -1 0 0 1 1 2 3 3 2 3 5 7 8 8 9 9 10 10 10 9 8 9 10 11 11 11 11 11 12 11
-2 -2 -2 -2 -1 -0 1 1 2 2 2 3 4 4 6 7 7 8 8 9 9 9 9 8 9 10 10 10 11 11 11 11
-3 -3 -3 -3 -3 -1 0 0 0 0 1 2 3 3 5 6 6 6 7 8 8 8 8 8 9 9 10 11 10 10 11 11

GFSFLT1_850_temp_138.txt.gz
Temp
19 19 19 19 20 20 20 21 22 21 20 20 18 18 18 18 19 18 18 17 16 16 16 15 15 14 14 13 13 13 12 12
19 19 19 19 19 20 20 21 21 21 19 19 18 18 18 18 18 17 17 17 16 16 16 15 14 14 14 14 13 13 12 11
18 18 18 18 19 20 20 21 21 21 21 19 18 19 19 19 18 18 17 17 18 17 16 15 14 14 14 14 14 13 12 12
15 16 17 17 18 19 19 21 20 19 18 17 20 15 18 17 17 17 17 17 17 16 16 15 15 14 14 14 14 15 14 13
15 16 16 17 18 18 19 20 18 17 16 16 20 19 19 18 17 17 15 16 16 16 15 15 15 14 14 14 14 15 14 14
12 15 15 15 15 16 17 19 15 15 17 17 17 17 17 18 17 16 16 15 15 15 14 14 14 14 14 13 14 13 14 14
11 14 16 15 14 14 14 15 15 15 16 16 16 15 17 16 18 17 16 15 15 15 14 14 13 13 13 13 13 13 13 14
7 12 13 13 12 14 14 14 15 16 16 16 14 16 15 15 15 15 14 15 15 14 14 13 13 13 13 13 13 13 13 13
5 10 12 13 12 12 14 14 13 13 15 15 14 13 14 14 14 14 14 14 14 14 13 13 13 13 13 13 13 13 13 13
5 7 9 9 8 8 9 9 10 11 12 13 13 11 12 12 13 12 11 11 12 12 12 13 12 12 12 13 12 13 13 13
5 6 7 7 7 7 7 8 9 11 10 11 12 11 11 12 12 12 11 11 11 11 12 12 12 12 12 12 12 12 12 12
1 2 1 2 5 6 6 7 8 10 10 10 11 11 11 11 11 11 11 10 10 10 11 12 12 12 12 12 12 12 12 12
1 -0 1 -1 0 4 5 5 6 9 9 10 11 10 10 10 10 10 11 11 10 10 10 11 11 12 12 12 12 12 11 11
-0 -0 -0 -0 -2 -0 1 4 4 7 8 8 9 9 9 10 9 9 9 10 10 10 10 10 10 10 11 11 12 12 11 11
-1 -2 -2 -2 -2 0 0 2 4 5 7 7 8 8 8 8 8 8 9 9 10 10 10 10 9 9 10 11 11 11 11 11
-2 -2 -2 -3 -4 -1 1 1 1 3 4 5 5 6 6 6 6 7 7 8 9 10 10 10 9 9 10 10 10 11 11 11
-3 -3 -4 -4 -4 -3 -3 -3 -1 0 1 2 4 5 6 6 5 5 7 8 8 9 9 9 9 8 9 9 10 10 11 11
-5 -4 -4 -4 -4 -2 -1 -2 -2 -1 -0 2 3 4 5 4 5 5 6 7 7 8 8 8 9 8 8 9 9 10 10 11
-5 -5 -5 -5 -5 -3 -2 -2 -2 -1 0 0 1 1 2 2 2 3 5 6 6 7 7 8 8 9 9 8 9 10 10 10